040517 213  0.3+  0.5+    040808 049  0.2-  1.0-    060123 918  0.8-  0.1-  

040517 213  0.2+  0.8+    040808 049  0.3-  1.0-    060123 918 (2.9-  1.5-) 

040517 213  0.0   0.4+    040808 442  0.1-  0.5-    060123 918  0.3-  0.3+  

040517 213  0.2+  0.3+    040808 104  0.2-  0.4-    060123 918  0.1-  0.5+  

040517 213  0.2+  0.0     040808 104  0.3-  0.4-    060123 918  0.1+  0.3+  

040517 215  0.2+  1.5+    040808 104  0.2-  0.3-    060123 215  0.7-  0.9+  

040517 557  0.2-  0.6+    040808 104  0.2-  0.5-    060218 J97  2.1-  0.4+  

040517 215  0.0   0.3+    040808 A32  0.1+  0.5-    060809 349  1.6-  1.1+  

040517 215  0.1+  0.6+    040808 A32  0.2+  0.5-    060809 349  1.2-  1.5+  

040517 215  0.1-  0.5+    040808 A32  0.2+  0.5-    060818 349  2.0-  2.0+  

040517 215  0.0   0.4+    040808 A33  0.2+  0.5-                            

040517 215  0.1+  0.8+    040808 A33  0.3-  0.3-                            

NAKANO

         **** Don't distribute anyone except personal use only ****

                (C) Copyright 2007 OAA/ComputingSection

write mail from CFAD0::NAKANO on 2007-03-05 06:21:13(JST).

 

    C/2001 Q4 (NEAT)

Epoch 2004 June 4.0 TT = JDT 2453160.5  

T 2004 May  15.96497 TT                                 Nakano

q   0.9619574            (2000.0)            P               Q

z  -0.0007196      Peri.    1.20327     -0.86516780     -0.06630218

 +/-0.0000007      Node   210.27851     -0.46794401     -0.24966924

e   1.0006922      Incl.   99.64266     -0.18031383     +0.96605864

From 2408 observations 2001 Aug. 24-2005 Oct. 8, mean residual 0".69.

   Nongravitational parameters A1 = +1.62 +/- 0.01, A2 = +0.0636 +/- 0.0060.

   (1/a)org.= +0.000050, (1/a)fut.= -0.000707 (+/-0.000001), Q= 9.

See residuals on http://www.oaa.gr.jp/~oaacs/nk/nk1265.htm



NAKANO

         **** Don't distribute anyone except personal use only ****

                (C) Copyright 2005 OAA/ComputingSection

write mail from CFAD0::NAKANO on 2005-11-03 23:22:12(JST).



    C/2001 Q4 (NEAT)                                                      

Epoch 2004 June 4.0 TT = JDT 2453160.5  

T 2004 May 15.96505 TT                                  Nakano

q   0.9619572            (2000.0)            P               Q

z  -0.0007015      Peri.    1.20341     -0.86516730     -0.06629958

 +/-0.0000017      Node   210.27859     -0.46794568     -0.24966932

e   1.0006748      Incl.   99.64258     -0.18031191     +0.96605879

From 2096 observations 2001 Aug. 24-2004 Nov. 13, mean residual 0".67.

   Nongravitational parameters A1 = +1.62 +/- 0.01, A2 = -0.1273 +/- 0.0120.

   (1/a)org.= +0.000045, (1/a)fut.= -0.000678 (+/-0.000002), Q= 8.

NAKANO

         **** Don't distribute anyone except personal use only ****

                (C) Copyright 2004 OAA/ComputingSection

write mail from CFAD0::NAKANO on 2004-12-09 01:41:12(JST).

 

    C/2001 Q4 (NEAT)                                                      

Epoch 2004 June 4.0 TT = JDT 2453160.5  

T 2004 May  15.96511 TT                                 Nakano

q   0.9619568            (2000.0)            P               Q

z  -0.0006847      Peri.    1.20352     -0.86516706     -0.06629767

 +/-0.0000028      Node   210.27863     -0.46794674     -0.24966908

e   1.0006587      Incl.   99.64254     -0.18031031     +0.96605899

From 1380 observations 2001 Aug. 24-2004 July 1, mean residual 0".73.

   Nongravitational parameters A1 = +1.64 +/- 0.02, A2 = -0.3003 +/- 0.0206.

   (1/a)org.= +0.000040, (1/a)fut.= -0.000653 (+/-0.000003), Q= 8.

See residuals in http://www.oaa.gr.jp/~oaacs/nk/nk1074.htm



NAKANO

         **** Don't distribute anyone except personal use only ****

                (C) Copyright 2004 OAA/ComputingSection

write mail from CFAD0::NAKANO on 2004-07-03 22:20:30(JST).

 





    C/2001 Q4 (NEAT)                                                      

Epoch 2004 June 4.0 TT = JDT 2453160.5  

T 2004 May  15.96693 TT                                 Nakano

q   0.9619592            (2000.0)            P               Q

z  -0.0007767      Peri.    1.20627     -0.86517160     -0.06625592

 +/-0.0000006      Node   210.27847     -0.46795662     -0.24964588

e   1.0007471      Incl.   99.64258     -0.18026289     +0.96606785

>From 944 observations 2001 Aug. 24-2004 May 27, mean residual 0".93.

   (1/a)org.= +0.000032, (1/a)fut.= -0.000713 (+/-0.000001), Q= 8.



         **** Don't distribute anyone except personal use only ****

                (C) Copyright 2004 OAA/ComputingSection

write mail from CFAD0::NAKANO on 2004-06-02 06:05:03(JST).



◎C/2001 Q4の軌道と予報位置です



  北半球で観測可能となって以来,多くの観測が行なわれています.最近の

眼視光度観測は4等級です.



    C/2001 Q4 (NEAT)                                                      

Epoch 2004 June 4.0 TT = JDT 2453160.5  

T 2004 May  15.96695 TT                                 Nakano

q   0.9619589            (2000.0)            P               Q

z  -0.0007762      Peri.    1.20632     -0.86517144     -0.06625528

 +/-0.0000006      Node   210.27850     -0.46795713     -0.24964563

e   1.0007467      Incl.   99.64257     -0.18026230     +0.96606796

From 864 observations 2001 Aug. 24-2004 May 25, mean residual 0".92.

   (1/a)org.= +0.000032, (1/a)fut.= -0.000713 (+/-0.000001), Q= 8.





 20h JST R.A.(2000) Decl.    Delta   r      Mot./PA   Elong. Mag.   PA/Tail  Ast

rinomical

           h  m       。  ,                    ,     。    。    m1      。 。      T

wilight

May  25  09 19.41  +38 43.6  0.670  0.976   76.2/ 29   67.4   4.7   99/14.8  +46

.1  111.5

     26  09 22.66  +39 49.8  0.697  0.979   70.5/ 30   66.9   4.8   99/14.1  +46

.0  113.2

     27  09 25.74  +40 50.9  0.723  0.983   65.5/ 30   66.5   4.9   99/13.5  +45

.9  114.7

     28  09 28.68  +41 47.3  0.750  0.986   60.9/ 31   66.1   5.0   98/12.9  +45

.7  116.2

     29  09 31.49  +42 39.6  0.777  0.990   56.8/ 31   65.6   5.0   98/12.4  +45

.5  117.5

     30  09 34.18  +43 28.2  0.804  0.995   53.1/ 31   65.2   5.1   97/11.9  +45

.3  118.7

     31  09 36.75  +44 13.5  0.831  0.999   49.8/ 32   64.7   5.2   97/11.4  +45

.0  119.9

June  1  09 39.21  +44 55.7  0.857  1.004   46.7/ 32   64.3   5.3   96/10.9  +44

.7  121.0

      2  09 41.58  +45 35.2  0.884  1.009   44.0/ 33   63.8   5.3   96/10.5  +44

.4  122.0

      3  09 43.86  +46 12.2  0.911  1.015   41.5/ 33   63.3   5.4   95/10.1  +44

.1  122.9

      4  09 46.06  +46 47.0  0.937  1.020   39.2/ 33   62.9   5.5   95/9.75  +43

.7  123.8

      5  09 48.18  +47 19.7  0.964  1.026   37.2/ 34   62.4   5.5   94/9.39  +43

.4  124.7

      6  09 50.23  +47 50.5  0.990  1.032   35.3/ 34   62.0   5.6   94/9.05  +43

.0  125.4

      7  09 52.22  +48 19.6  1.016  1.039   33.5/ 35   61.5   5.7   93/8.73  +42

.7  126.2

      8  09 54.15  +48 47.1  1.042  1.045   32.0/ 35   61.1   5.7   93/8.43  +42

.4  126.9

      9  09 56.03  +49 13.2  1.067  1.052   30.5/ 36   60.6   5.8   92/8.14  +42

.0  127.5

     10  09 57.85  +49 38.0  1.093  1.059   29.2/ 36   60.2   5.9   91/7.87  +41

.6  128.2

     11  09 59.64  +50 01.5  1.118  1.066   28.0/ 37   59.8   5.9   91/7.61  +41

.2  128.8

     12  10 01.38  +50 23.9  1.143  1.074   26.8/ 37   59.3   6.0   90/7.36  +40

.8  129.4

     13  10 03.09  +50 45.2  1.168  1.082   25.8/ 38   58.9   6.0   89/7.12  +40

.4  129.9

     14  10 04.77  +51 05.6  1.192  1.090   24.8/ 38   58.5   6.1   89/6.90  +40

.1  130.5

     15  10 06.41  +51 25.0  1.217  1.098   24.0/ 39   58.1   6.1   88/6.68  +39

.7  131.0

     16  10 08.03  +51 43.6  1.241  1.106   23.2/ 39   57.7   6.2   87/6.48  +39

.3  131.5

     17  10 09.62  +52 01.5  1.265  1.114   22.4/ 40   57.3   6.2   87/6.28  +38

.9  132.0

     18  10 11.20  +52 18.6  1.288  1.123   21.7/ 41   56.9   6.3   86/6.10  +38

.6  132.4

     19  10 12.75  +52 35.0  1.312  1.132   21.1/ 41   56.5   6.3   85/5.92  +38

.2  132.8

     20  10 14.29  +52 50.8  1.335  1.141   20.5/ 42   56.1   6.4   85/5.75  +37

.9  133.3

     21  10 15.81  +53 06.0  1.358  1.150   20.0/ 43   55.7   6.4   84/5.58  +37

.5  133.7

     22  10 17.32  +53 20.7  1.380  1.159   19.5/ 43   55.4   6.5   83/5.43  +37

.2  134.1

     23  10 18.82  +53 34.8  1.402  1.168   19.0/ 44   55.0   6.5   82/5.28  +36

.8  134.5

     24  10 20.32  +53 48.5  1.425  1.178   18.6/ 45   54.7   6.5   82/5.14  +36

.5  134.9

     25  10 21.80  +54 01.7  1.446  1.188   18.2/ 45   54.3   6.6   81/5.00  +36

.2  135.2

NAKANO

         **** Don't distribute anyone except personal use only ****

                (C) Copyright 2004 OAA/ComputingSection

write mail from CFAD0::NAKANO on 2004-05-27 04:52:03(JST).





◎C/2001 Q4の軌道と予報位置です



 非重力効果を考慮した軌道を前回のEMES(4/24,5/6)に掲げましたが,

次の軌道には,これは含まれていません.考慮しなくても,まぁまぁの軌

道が計算されます.



    C/2001 Q4 (NEAT)                                                      

Epoch 2004 June 4.0 TT = JDT 2453160.5  

T 2004 May  15.96705 TT                                 Nakano

q   0.9619576            (2000.0)            P               Q

z  -0.0007735      Peri.    1.20651     -0.86517152     -0.06625249

 +/-0.0000006      Node   210.27851     -0.46795819     -0.24964402

e   1.0007441      Incl.   99.64258     -0.18025918     +0.96606857

>From 689 observations 2001 Aug. 24-2004 May 18, mean residual 0".87.

   (1/a)org.= +0.000035, (1/a)fut.= -0.000710 (+/-0.000001), Q= 8.



 

Date/        TT  R.A.(2000) Decl.     Delta   r     Daily motion  Mag.  Moon Age

              h    h  m       。  ,                      ,  / PA 。  m1      。

2004 May  20 11  09 00.34  +31 29.1   0.540  0.965   116.8 /  27   4.2   56  .01

          21 11  09 04.59  +33 12.8   0.566  0.967   106.6 /  28   4.3   45  .05

          22 11  09 08.60  +34 47.0   0.591  0.969    97.7 /  28   4.4   34  .09

          23 11  09 12.40  +36 12.9   0.617  0.971    89.7 /  29   4.5   25  .16

          24 11  09 16.00  +37 31.5   0.644  0.973    82.5 /  29   4.6   18  .23

          25 11  09 19.41  +38 43.6   0.670  0.976    76.2 /  29   4.7   17  .32

